[[{"header":{"parameterUnit":"m.s-1","parameterCategory":1,"la1":30.2991,"la2":30.254,"lo1":-89.0895,"lo2":-89.0444,"dy":0.0017,"dx":0.0017,"nx":28,"ny":28,"refTime":"2024-10-06T09:00:00:Z","depth":0,"parameterNumber":2,"parameterNumberName":"U-component_of_WINDS"},"data":[0,0,0,0,0,0,0,0,0,0,0,0,0,0,0,0,0,0,0,0,0,0,0,0,0,0,0,0,0,0,0,0,0,0,0,0,0,0,0,0,0,0,0,0,0,0,0,0,0,0,0,0,0,0,0,0,0,0,-3.308,-3.308,0,-3.314,-3.314,-3.3141,-3.3024,-3.302,-3.3016,-3.3013,-3.3077,-3.3083,-3.3088,0,0,0,0,0,0,0,0,0,0,0,0,0,-3.2866,-3.287,-3.308,-3.308,-3.3081,-3.314,-3.3141,-3.3141,-3.3025,-3.302,-3.3015,-3.3011,-3.3076,-3.3082,-3.3088,0,0,0,0,0,0,0,0,0,0,0,0,0,-3.2946,-3.2872,-3.3079,-3.303,-3.3026,-3.314,-3.3141,-3.3142,-3.3026,-3.302,-3.3014,-3.3009,-3.3074,-3.3081,-3.3089,-3.3254,0,0,-3.3114,-3.3117,0,0,0,0,0,0,0,0,-3.2941,-3.2954,-3.3036,-3.3034,-3.3029,-3.3068,-3.3089,-3.318,-3.3027,-3.3026,-3.3013,-3.3006,-3.3079,-3.3086,-3.3111,-3.3257,-3.326,-3.3114,-3.3119,-3.3123,-3.3125,0,0,0,0,0,0,0,-3.2936,-3.295,-3.3103,-3.3038,-3.3034,-3.3005,-3.301,-3.3105,-3.3085,-3.3026,-3.3017,-3.3026,-3.3076,-3.3103,-3.3111,-3.3261,-3.3114,-3.3121,-3.3126,-3.3129,-3.3547,-3.3553,0,0,0,0,0,0,-3.2936,-3.2947,-3.3101,-3.3105,-3.297,-3.3014,-3.3019,-3.3062,-3.3083,-3.3081,-3.3031,-3.302,-3.3092,-3.3102,-3.3113,-3.3309,-3.3122,-3.313,-3.3135,-3.3541,-3.3549,-3.3555,0,0,0,0,0,0,-3.2932,-3.2951,-3.3099,-3.3024,-3.304,-3.3024,-3.3072,-3.3066,-3.3093,-3.3087,-3.3083,-3.3062,-3.3088,-3.3102,-3.322,-3.331,-3.3134,-3.3141,-3.3534,-3.3543,-3.3552,-3.3702,0,0,0,0,0,0,-3.2926,-3.295,-3.3013,-3.3026,-3.3045,-3.3205,-3.3078,-3.3071,-3.3107,-3.3093,-3.3115,-3.3113,-3.3085,-3.3209,-3.3228,-3.3317,-3.3147,-3.3525,-3.3538,-3.3549,-3.3689,-3.3716,-3.3738,0,0,0,0,0,-3.2919,-3.3053,-3.3016,-3.3036,-3.3122,-3.3211,-3.3221,-3.3185,-3.3114,-3.3177,-3.3173,-3.3113,-3.3296,-3.3222,-3.3243,-3.3336,-3.352,-3.3534,-3.3548,-3.3678,-3.371,-3.3738,0,0,0,0,0,0,-3.3052,-3.3054,-3.3013,-3.3155,-3.3184,-3.3191,-3.3269,-3.322,-3.327,-3.3256,-3.3209,-3.3215,-3.3343,-3.335,-3.3268,-3.3497,-3.3396,-3.3415,-3.3488,-3.3518,-3.3542,-3.3539,-3.3154,0,0,0,0,0,-3.3097,-3.3168,-3.3166,-3.3292,-3.3308,-3.3286,-3.3323,-3.3292,-3.332,-3.3332,-3.3337,-3.3367,-3.3431,-3.3474,-3.3533,-3.3688,-3.3693,-3.3763,-3.3787,-3.3807,-3.3825,-3.3909,-3.3941,-3.3602,-3.3602,-3.3602,0,0,-3.3193,-3.3202,-3.325,-3.3318,-3.3337,-3.3412,-3.3297,-3.3381,-3.3437,-3.3345,-3.3457,-3.3462,-3.3492,-3.363,-3.3691,-3.3641,-3.3919,-3.3825,-3.3842,-3.3849,-3.3927,-3.3959,-3.3988,-3.3612,-3.361,-3.3609,0,0,-3.3406,-3.3419,-3.3526,-3.3546,-3.3575,-3.3559,-3.3585,-3.3599,-3.3599,-3.371,-3.3643,-3.3708,-3.382,-3.3845,-3.3872,-3.4093,-3.404,-3.4113,-3.4242,-3.4325,-3.4352,-3.4375,-3.4456,-3.4485,-3.413,-3.4131,-3.4131,0,-3.3521,-3.3631,-3.3587,-3.3676,-3.3709,-3.3627,-3.3735,-3.3757,-3.3804,-3.3829,-3.3771,-3.391,-3.3924,-3.4067,-3.4121,-3.4145,-3.4174,-3.4112,-3.4351,-3.4374,-3.4395,-3.4472,-3.4503,-3.414,-3.4139,-3.4138,-3.4137,0,-3.3772,-3.385,-3.3932,-3.3979,-3.4021,-3.4119,-3.4091,-3.4138,-3.4103,-3.4094,-3.4209,-3.4223,-3.4284,-3.4315,-3.4282,-3.4454,-3.4422,-3.4358,-3.4257,-3.4437,-3.4509,-3.4538,-3.4153,-3.4149,-3.4147,-3.4144,0,0,-3.4073,-3.4093,-3.4125,-3.4145,-3.417,-3.423,-3.4324,-3.4382,-3.4425,-3.4459,-3.4539,-3.4634,-3.4576,-3.4607,-3.4575,-3.4647,-3.4824,-3.4575,-3.4575,-3.4623,-3.5016,-3.5066,-3.5101,-3.4787,-3.4793,-3.4797,-3.5014,0,-3.4286,-3.4449,-3.4411,-3.4572,-3.4644,-3.4566,-3.4649,-3.4674,-3.4668,-3.4728,-3.472,-3.479,-3.4706,-3.4724,-3.4792,-3.4788,-3.4903,-3.4772,-3.4863,-3.4867,-3.4861,-3.5138,-3.5191,-3.5396,-3.5042,-3.5047,-3.505,0,-3.4556,-3.4601,-3.4769,-3.4783,-3.4812,-3.4887,-3.4937,-3.4995,-3.5022,-3.5012,-3.5047,-3.5001,-3.5096,-3.4991,-3.5121,-3.5033,-3.5067,-3.5071,-3.5078,-3.5088,-3.4972,-3.5157,-3.546,-3.5492,-3.5093,-3.509,-3.5086,0,-3.4762,-3.4864,-3.4978,-3.4997,-3.5015,-3.507,-3.508,-3.5101,-3.5138,-3.5182,-3.5207,-3.5261,-3.5293,-3.5336,-3.5307,-3.5233,-3.5444,-3.5336,-3.544,-3.5441,-3.549,-3.5488,-3.5806,-3.5508,-3.5508,-3.5507,-3.5507,0,-3.5005,-3.5112,-3.507,-3.5141,-3.5258,-3.5213,-3.5331,-3.5332,-3.5351,-3.5421,-3.5356,-3.5424,-3.538,-3.5444,-3.5421,-3.5534,-3.5548,-3.5544,-3.5537,-3.5551,-3.5552,-3.5576,-3.5562,-3.5515,-3.5513,-3.5512,-3.5511,0,-3.5256,-3.5232,-3.5352,-3.5358,-3.5363,-3.5449,-3.5455,-3.5521,-3.5509,-3.5598,-3.5617,-3.5599,-3.567,-3.5645,-3.5722,-3.5706,-3.5851,-3.5824,-3.5842,-3.5837,-3.5943,-3.5935,-3.6289,-3.6334,-3.6006,-3.6009,-3.6011,0,-3.5415,-3.5495,-3.551,-3.5552,-3.5566,-3.5635,-3.5672,-3.5631,-3.5673,-3.5709,-3.5771,-3.5837,-3.5888,-3.6006,-3.6001,-3.6059,-3.6035,-3.6155,-3.6044,-3.6056,-3.604,-3.6037,-3.6046,-3.6179,-3.6182,-3.6185,-3.6188,0,-3.5699,-3.5683,-3.5739,-3.5793,-3.5839,-3.5879,-3.5913,-3.5951,-3.5911,-3.5962,-3.6034,-3.6074,-3.6152,-3.6219,-3.6271,-3.6282,-3.623,-3.6222,-3.625,-3.6267,-3.6275,-3.6275,-3.5906,-3.6215,-3.6213,-3.6211,-3.6209,-3.6208,-3.591,-3.5978,-3.5999,-3.6065,-3.6086,-3.6119,-3.6182,-3.6177,-3.6236,-3.6296,-3.6267,-3.6352,-3.6376,-3.6441,-3.6459,-3.6525,-3.6478,-3.6518,-3.6529,-3.654,-3.6555,-3.6262,-3.6534,-3.6533,-3.6532,-3.6531,-3.6531,0,-3.6193,-3.6203,-3.6263,-3.6313,-3.6364,-3.6308,-3.6342,-3.639,-3.6465,-3.6491,-3.6542,-3.6625,-3.669,-3.6688,-3.6748,-3.6801,-3.6779,-3.6818,-3.6816,-3.682,-3.6592,-3.6563,-3.6836,-3.6836,-3.6836,-3.6835,-3.6835,-3.6835,-3.6347,-3.646,-3.6446,-3.6569,-3.6577,-3.6659,-3.6683,-3.6714,-3.6735,-3.6831,-3.6884,-3.6882,-3.6897,-3.6958,-3.7014,-3.7012,-3.7039,-3.7088,-3.7078,-3.6865,-3.6835,-3.6807,-3.678,-3.7093,-3.7094,-3.73,-3.7302,-3.7304]},{"header":{"parameterUnit":"m.s-1","parameterCategory":1,"la1":30.2991,"la2":30.254,"lo1":-89.0895,"lo2":-89.0444,"dy":0.0017,"dx":0.0017,"nx":28,"ny":28,"refTime":"2024-10-06T09:00:00:Z","depth":0,"parameterNumber":3,"parameterNumberName":"V-component_of_WINDS"},"data":[0,0,0,0,0,0,0,0,0,0,0,0,0,0,0,0,0,0,0,0,0,0,0,0,0,0,0,0,0,0,0,0,0,0,0,0,0,0,0,0,0,0,0,0,0,0,0,0,0,0,0,0,0,0,0,0,0,0,-5.34,-5.34,0,-5.3415,-5.3415,-5.3415,-5.3313,-5.331,-5.3307,-5.3305,-5.3319,-5.3322,-5.3325,0,0,0,0,0,0,0,0,0,0,0,0,0,-5.328,-5.3283,-5.34,-5.34,-5.34,-5.3415,-5.3415,-5.3415,-5.3314,-5.331,-5.3307,-5.3303,-5.3318,-5.3322,-5.3325,0,0,0,0,0,0,0,0,0,0,0,0,0,-5.3317,-5.3284,-5.34,-5.3351,-5.3347,-5.3415,-5.3415,-5.3415,-5.3314,-5.331,-5.3306,-5.3302,-5.3317,-5.3321,-5.3326,-5.3441,0,0,-5.334,-5.3342,0,0,0,0,0,0,0,0,-5.3315,-5.3322,-5.3358,-5.3355,-5.335,-5.3358,-5.3378,-5.3424,-5.3315,-5.3327,-5.3304,-5.3299,-5.3335,-5.3338,-5.335,-5.3442,-5.3442,-5.334,-5.3343,-5.3345,-5.3347,0,0,0,0,0,0,0,-5.3313,-5.3321,-5.3406,-5.3359,-5.3354,-5.3328,-5.3328,-5.3386,-5.3355,-5.3325,-5.3318,-5.3321,-5.3332,-5.3346,-5.335,-5.3442,-5.334,-5.3344,-5.3347,-5.3349,-5.3626,-5.3631,0,0,0,0,0,0,-5.3317,-5.3319,-5.3405,-5.3406,-5.3322,-5.3333,-5.3334,-5.336,-5.3354,-5.3349,-5.3325,-5.3316,-5.3341,-5.3345,-5.335,-5.3483,-5.3345,-5.3349,-5.3352,-5.3622,-5.3628,-5.3632,0,0,0,0,0,0,-5.3315,-5.3326,-5.3404,-5.3361,-5.3369,-5.334,-5.337,-5.3362,-5.3376,-5.3354,-5.3347,-5.3345,-5.3337,-5.3344,-5.3419,-5.3482,-5.3352,-5.3356,-5.3616,-5.3624,-5.363,-5.3751,0,0,0,0,0,0,-5.3312,-5.3326,-5.337,-5.3362,-5.3371,-5.3474,-5.3374,-5.3366,-5.3384,-5.3373,-5.3371,-5.3367,-5.3334,-5.3412,-5.3423,-5.3486,-5.3359,-5.3611,-5.362,-5.3628,-5.3741,-5.3761,-5.3778,0,0,0,0,0,-5.3308,-5.3403,-5.3373,-5.3383,-5.3426,-5.3478,-5.3483,-5.3444,-5.339,-5.3433,-5.3419,-5.3367,-5.3474,-5.3421,-5.3432,-5.3498,-5.3606,-5.3617,-5.3627,-5.3733,-5.3757,-5.3778,0,0,0,0,0,0,-5.3419,-5.3402,-5.3367,-5.3463,-5.3473,-5.346,-5.3514,-5.3472,-5.3497,-5.3485,-5.3436,-5.3436,-5.3519,-5.3516,-5.3457,-5.3608,-5.353,-5.3544,-5.3607,-5.363,-5.3648,-5.3647,-5.3363,0,0,0,0,0,-5.3455,-5.3499,-5.3481,-5.3567,-5.3574,-5.3544,-5.3565,-5.3534,-5.3542,-5.3545,-5.3536,-5.3545,-5.358,-5.3605,-5.3637,-5.374,-5.3738,-5.3791,-5.3809,-5.3825,-5.3837,-5.389,-5.3913,-5.3667,-5.3666,-5.3666,0,0,-5.3529,-5.3525,-5.3555,-5.3589,-5.3593,-5.3639,-5.3548,-5.36,-5.3633,-5.3553,-5.3623,-5.3617,-5.3624,-5.3713,-5.3752,-5.3713,-5.3904,-5.3838,-5.385,-5.3854,-5.3903,-5.3926,-5.3947,-5.3674,-5.3672,-5.3671,0,0,-5.3687,-5.3689,-5.376,-5.3766,-5.3772,-5.3751,-5.3769,-5.3763,-5.3755,-5.3825,-5.3765,-5.3804,-5.3866,-5.3873,-5.3885,-5.4044,-5.3997,-5.4056,-5.4153,-5.4205,-5.4225,-5.4242,-5.4298,-5.4318,-5.4068,-5.4068,-5.4068,0,-5.3778,-5.3845,-5.3802,-5.3859,-5.3875,-5.3804,-5.3875,-5.3882,-5.3899,-5.3912,-5.3867,-5.3943,-5.3943,-5.4033,-5.4071,-5.4084,-5.4101,-5.4056,-5.4225,-5.4242,-5.4257,-5.431,-5.4331,-5.4075,-5.4074,-5.4074,-5.4073,0,-5.3956,-5.4004,-5.406,-5.4078,-5.41,-5.4164,-5.413,-5.4158,-5.4125,-5.4108,-5.4179,-5.4176,-5.4205,-5.4224,-5.4193,-5.4309,-5.4285,-5.4234,-5.4155,-5.4288,-5.4337,-5.4357,-5.4085,-5.4083,-5.4081,-5.4079,0,0,-5.4186,-5.4178,-5.4199,-5.4206,-5.4207,-5.4243,-5.4303,-5.4331,-5.4355,-5.4369,-5.4417,-5.4471,-5.4424,-5.4437,-5.4406,-5.4452,-5.4577,-5.4395,-5.4395,-5.4429,-5.4704,-5.4742,-5.4766,-5.4546,-5.455,-5.4553,-5.4703,0,-5.4339,-5.4441,-5.4404,-5.4508,-5.455,-5.4483,-5.4535,-5.4541,-5.4527,-5.456,-5.4544,-5.4583,-5.4518,-5.4526,-5.4568,-5.4553,-5.4632,-5.4542,-5.459,-5.4592,-5.459,-5.4792,-5.4832,-5.4975,-5.4722,-5.4725,-5.4728,0,-5.4532,-5.4554,-5.4662,-5.4655,-5.4672,-5.4719,-5.4741,-5.4774,-5.478,-5.4766,-5.4781,-5.4739,-5.4796,-5.4718,-5.4795,-5.4735,-5.4752,-5.4747,-5.4752,-5.4754,-5.4668,-5.4799,-5.5019,-5.5041,-5.4757,-5.4755,-5.4753,0,-5.4688,-5.4743,-5.4815,-5.4823,-5.4817,-5.4851,-5.485,-5.4851,-5.487,-5.489,-5.4901,-5.4927,-5.4941,-5.4962,-5.4928,-5.4874,-5.501,-5.4929,-5.5,-5.5001,-5.5031,-5.503,-5.5257,-5.5044,-5.5043,-5.5043,-5.5042,0,-5.4863,-5.4932,-5.4884,-5.4929,-5.5003,-5.4959,-5.5034,-5.5025,-5.5026,-5.5067,-5.501,-5.505,-5.5002,-5.5037,-5.5011,-5.5078,-5.5085,-5.5075,-5.5067,-5.508,-5.5082,-5.5091,-5.508,-5.5048,-5.5047,-5.5046,-5.5045,0,-5.5049,-5.502,-5.5094,-5.5082,-5.508,-5.5136,-5.5125,-5.5165,-5.5146,-5.5198,-5.5208,-5.5179,-5.5216,-5.5184,-5.5221,-5.5203,-5.5293,-5.5271,-5.5291,-5.5285,-5.5357,-5.5351,-5.5597,-5.5627,-5.5396,-5.5398,-5.54,0,-5.5163,-5.5214,-5.5207,-5.523,-5.5233,-5.5271,-5.529,-5.5247,-5.5269,-5.5278,-5.5317,-5.535,-5.5374,-5.5437,-5.5419,-5.5446,-5.5424,-5.5509,-5.5428,-5.5439,-5.5425,-5.5422,-5.5426,-5.5525,-5.5528,-5.553,-5.5532,0,-5.5367,-5.535,-5.538,-5.5404,-5.5428,-5.5446,-5.5458,-5.548,-5.5437,-5.5464,-5.5502,-5.552,-5.5557,-5.559,-5.5611,-5.5609,-5.5564,-5.5558,-5.5575,-5.5589,-5.5598,-5.5593,-5.5335,-5.5552,-5.555,-5.5549,-5.5547,-5.5547,-5.552,-5.5562,-5.5563,-5.5598,-5.5603,-5.5615,-5.5652,-5.5638,-5.5668,-5.5695,-5.5668,-5.5713,-5.5716,-5.574,-5.5743,-5.5778,-5.5742,-5.5768,-5.5774,-5.5781,-5.5792,-5.5593,-5.5781,-5.5781,-5.578,-5.578,-5.5779,0,-5.5721,-5.5718,-5.575,-5.5769,-5.5796,-5.575,-5.5762,-5.5787,-5.5828,-5.5834,-5.5858,-5.5901,-5.5933,-5.5917,-5.5944,-5.5974,-5.5954,-5.5983,-5.598,-5.598,-5.5822,-5.5804,-5.5999,-5.5999,-5.5999,-5.5999,-5.5999,-5.5999,-5.5829,-5.5897,-5.5879,-5.5949,-5.5945,-5.5989,-5.6,-5.6011,-5.6015,-5.6065,-5.6091,-5.608,-5.6077,-5.6104,-5.613,-5.6125,-5.6137,-5.6173,-5.6161,-5.6013,-5.5991,-5.5971,-5.5953,-5.6177,-5.6177,-5.6315,-5.6317,-5.6318]}]]